#timestamp,LO_Frequency,Hit,StdDev 
1610280015.2,286046955.0,Y
1610280035.1,286046979.8,P
1610280036.0,286046979.8,P
1610280055.8,286046971.8,P
1610280105.7,286046954.0,E
1610280115.6,286046972.2,N
1610280135.5,286046993.2,P
1610280155.3,286046985.7,N
1610280175.5,286046978.9,N
1610280195.3,286046974.6,Y
1610280215.1,286046987.8,P
1610280235.9,286046983.1,P
1610280255.7,286046978.2,P
1610280275.6,286046971.1,Y
1610280295.4,286046986.4,P
1610280315.2,286046981.9,P
1610280335.1,286046976.7,P
1610280336.0,286046976.7,Y
1610280355.8,286046991.2,P
1610280375.6,286046985.5,P
1610280395.5,286046983.3,P
1610280415.3,286046978.0,Y
1610280435.2,286046989.7,P
1610280455.9,286046986.5,P
1610280475.7,286046981.0,P
1610280495.6,286046980.3,Y
1610280515.4,286046988.9,P
1610280535.3,286046987.1,P
1610280555.1,286046985.4,P
1610280556.0,286046985.4,Y
1610280575.8,286046995.1,P
1610280595.7,286046992.1,N
1610280615.5,286046991.2,N
1610280635.3,286046987.8,Y
1610280655.2,286046994.1,P
1610280675.0,286046992.6,P
1610280675.9,286046992.6,P
1610280695.8,286046988.8,Y
1610280715.6,286046995.7,P
1610280735.4,286046992.3,P
1610280755.3,286046991.6,P
1610280775.1,286046986.9,Y
1610280795.9,286046992.5,P
1610280815.7,286046990.7,P
1610280835.5,286046988.7,P
1610280855.4,286046987.0,Y
1610280875.2,286046993.4,P
1610280895.0,286046992.2,P
1610280895.9,286046992.2,P
1610280915.8,286046990.7,Y
1610280935.6,286046997.1,P
1610280955.5,286046996.3,N
1610280975.3,286046994.7,N
1610280995.1,286046993.0,Y
1610281015.9,286046996.2,P
1610281035.7,286046993.7,P
1610281055.5,286046991.9,P
1610281075.4,286046992.5,Y
1610281095.2,286046996.8,P
1610281115.1,286046997.3,N
1610281116.0,286046997.3,N
1610281135.8,286046995.8,Y
1610281155.7,286046996.5,P
1610281175.5,286046998.0,P
1610281195.3,286046993.8,P
1610281215.2,286046994.6,Y
1610281235.0,286046996.0,P
1610281235.9,286046996.0,P
1610281255.7,286046993.5,P
1610281275.6,286046991.7,Y
1610281295.4,286046996.7,P
1610281315.3,286046996.8,P
1610281335.1,286046997.6,P
1610281336.0,286046997.6,Y
1610281355.8,286046998.4,P
1610281375.7,286046999.2,N
1610281395.5,286046997.0,N
1610281415.4,286046996.1,Y
1610281435.2,286046997.6,P
1610281455.0,286046995.6,P
1610281455.9,286046995.6,P
1610281475.8,286046993.6,Y
1610281495.6,286046996.6,P
1610281515.4,286046997.6,P
1610281535.3,286046995.4,P
1610281555.1,286046996.3,Y
1610281575.9,286046999.6,P
1610281595.7,286046999.2,N
1610281615.5,286046996.7,N
1610281635.4,286046996.7,N
1610281655.2,286046996.7,N
1610281675.0,286046995.4,Y
1610281676.0,286046995.4,P
1610281695.8,286046995.1,P
1610281715.6,286046993.5,P
1610281735.5,286046993.8,Y
1610281755.3,286046999.2,P
1610281775.1,286046995.0,N
1610281795.9,286046993.7,P
1610281815.7,286046993.8,Y
1610281835.6,286046999.6,P
1610281855.4,286046996.7,N
1610281875.2,286046999.3,N
1610281895.1,286046999.2,N
1610281896.0,286046999.2,N
1610281915.8,286046996.5,N
1610281935.7,286046999.6,N
1610281955.5,286046995.3,Y
1610281975.3,286046997.5,P
1610281995.2,286046994.9,P
1610282015.0,286046993.7,P
1610282015.9,286046993.7,Y
1610282035.8,286046997.3,P
1610282055.6,286046995.2,P
1610282075.4,286046995.3,P
1610282095.3,286046995.9,Y
1610282115.1,286047000.5,P
1610282135.9,286047000.8,N
1610282155.7,286046999.6,N
1610282175.5,286046998.4,N
1610282195.4,286046999.2,N
1610282215.2,286046996.8,N
1610282235.0,286046996.8,N
1610282235.9,286046996.8,N
1610282255.8,286046997.7,N
1610282275.6,286046995.5,N
1610282295.5,286046999.6,N
1610282315.3,286046997.9,N
1610282335.1,286046995.9,N
1610282355.9,286046995.0,N
1610282375.7,286046996.1,N
1610282395.5,286046993.7,Y
1610282415.4,286046999.4,P
1610282435.2,286046997.3,P
1610282455.1,286046996.4,P
1610282456.0,286046996.4,Y
1610282475.9,286046997.9,P
1610282495.7,286046995.7,P
1610282515.5,286046997.4,N
1610282535.4,286046995.4,Y
1610282555.2,286046999.4,P
1610282575.0,286046999.4,N
1610282575.9,286046999.4,N
1610282595.8,286046996.9,Y
1610282615.7,286046998.9,P
1610282635.5,286046999.2,P
1610282655.3,286046997.1,P
1610282675.2,286046996.5,Y
1610282695.0,286046998.9,P
1610282695.9,286046998.9,P
1610282715.8,286046999.6,N
1610282735.6,286046996.8,Y
1610282755.5,286046997.6,P
1610282775.3,286046996.6,P
1610282795.1,286046995.9,P
1610282815.9,286046995.1,Y
1610282835.7,286046997.3,P
1610282855.6,286046999.2,P
1610282875.4,286046998.4,N
1610282895.2,286046998.2,N
1610282915.1,286047000.6,N
1610282916.0,286047000.6,N
1610282935.8,286046998.8,N
1610282955.7,286046999.4,N
1610282975.5,286046999.4,N
1610282995.3,286047001.1,N
1610283015.2,286047000.9,N
1610283035.0,286046998.2,N
1610283035.9,286046998.2,N
1610283055.8,286046999.0,N
1610283075.6,286046999.6,N
1610283095.4,286046998.9,N
1610283115.3,286046998.7,N
1610283135.1,286046998.6,N
1610283155.8,286046998.3,N
1610283175.7,286046998.9,N
1610283195.5,286046999.5,N
1610283215.4,286046997.3,N
1610283235.2,286046999.2,N
1610283255.0,286046995.4,Y
1610283255.9,286046995.4,P
1610283275.8,286046997.7,N
1610283295.6,286046995.4,P
1610283315.4,286046993.9,Y
1610283335.3,286046997.3,P
1610283355.1,286046999.0,P
1610283375.9,286046999.1,N
1610283395.7,286046995.2,Y
1610283415.5,286046998.4,P
1610283435.4,286046999.5,P
1610283455.2,286046998.6,N
1610283475.0,286046998.4,Y
1610283475.9,286046998.4,P
1610283495.8,286046998.6,P
1610283515.6,286046996.6,P
1610283535.5,286046998.9,N
1610283555.3,286046997.1,Y
1610283575.1,286046998.3,P
1610283595.9,286046996.7,P
